| time (UTC) | temp F | wind direction | speed knots | gust knots | rain 1hr in | rain 24hr in | rain mn in | humidity % | barometer mb |
| 20260505152604 | 32 | 355 | 3.5 | 8.7 | 0.00 | 0.04 | 0.02 | 94 | 1026.1 |
| 20260505151623 | 32 | 336 | 3.5 | 8.7 | 0.00 | 0.04 | 0.02 | 94 | 1026.1 |
| 20260505150638 | 32 | 332 | 3.5 | 9.6 | 0.00 | 0.04 | 0.02 | 94 | 1026.0 |
| 20260505140619 | 32 | 299 | 3.5 | 8.7 | 0.00 | 0.04 | 0.02 | 93 | 1025.8 |
| 20260505124346 | 37 | 315 | 1.7 | 5.2 | 0.00 | 0.04 | 0.02 | 91 | 1023.8 |
| 20260505123324 | 37 | 317 | 1.7 | 7.8 | 0.00 | 0.04 | 0.02 | 91 | 1023.8 |
| 20260505122338 | 38 | 350 | 3.5 | 7.8 | 0.00 | 0.04 | 0.02 | 91 | 1023.4 |
| 20260505121352 | 38 | 330 | 2.6 | 7.0 | 0.00 | 0.04 | 0.02 | 91 | 1023.6 |
| 20260505120402 | 39 | 327 | 2.6 | 7.0 | 0.00 | 0.04 | 0.02 | 90 | 1023.6 |
| 20260505115416 | 38 | 346 | 1.7 | 7.0 | 0.00 | 0.04 | 0.02 | 88 | 1023.1 |
| 20260505114435 | 38 | 219 | 3.5 | 7.0 | 0.00 | 0.04 | 0.02 | 88 | 1023.1 |
| 20260505113429 | 38 | 209 | 3.5 | 7.8 | 0.00 | 0.04 | 0.02 | 89 | 1022.9 |
| 20260505112440 | 38 | 191 | 3.5 | 7.8 | 0.00 | 0.04 | 0.02 | 89 | 1022.8 |
| 20260505111446 | 38 | 189 | 3.5 | 7.8 | 0.00 | 0.04 | 0.02 | 90 | 1022.8 |
| 20260505110416 | 39 | 198 | 3.5 | 7.8 | 0.00 | 0.04 | 0.02 | 92 | 1022.7 |
| 20260505101234 | 39 | 177 | 3.5 | 8.7 | 0.00 | 0.04 | 0.02 | 91 | 1022.0 |
| 20260505093938 | 39 | 184 | 1.7 | 5.2 | 0.00 | 0.04 | 0.02 | 93 | 1022.2 |
| 20260505092955 | 39 | 142 | 0.9 | 4.3 | 0.00 | 0.04 | 0.02 | 93 | 1022.2 |
| 20260505091943 | 40 | 165 | 1.7 | 4.3 | 0.00 | 0.04 | 0.02 | 93 | 1022.4 |
| 20260505090957 | 40 | 140 | 1.7 | 5.2 | 0.00 | 0.04 | 0.02 | 92 | 1022.4 |
| 20260505090000 | 40 | 134 | 1.7 | 5.2 | 0.00 | 0.04 | 0.02 | 93 | 1022.4 |
| 20260505085015 | 40 | 161 | 0.9 | 1.7 | 0.00 | 0.04 | 0.02 | 93 | 1022.6 |
| 20260505083947 | 40 | 155 | 0.0 | 1.7 | 0.00 | 0.04 | 0.02 | 93 | 1023.0 |
| 20260505081903 | 41 | 355 | 0.0 | 2.6 | 0.00 | 0.04 | 0.02 | 93 | 1023.1 |
| 20260505080853 | 41 | 350 | 0.9 | 3.5 | 0.00 | 0.04 | 0.02 | 93 | 1023.1 |
| 20260505075844 | 41 | 314 | 0.9 | 3.5 | 0.00 | 0.04 | 0.02 | 93 | 1023.3 |
| 20260505074846 | 41 | 329 | 0.9 | 4.3 | 0.00 | 0.04 | 0.02 | 93 | 1023.3 |
| 20260505073842 | 41 | 336 | 1.7 | 4.3 | 0.00 | 0.04 | 0.02 | 92 | 1023.3 |
| 20260505072808 | 41 | 336 | 1.7 | 3.5 | 0.00 | 0.04 | 0.02 | 92 | 1023.0 |
| 20260505071733 | 41 | 43 | 0.9 | 6.1 | 0.00 | 0.04 | 0.02 | 92 | 1023.0 |
| 20260505070744 | 41 | 49 | 2.6 | 6.1 | 0.00 | 0.04 | 0.02 | 92 | 1023.3 |
| 20260505065741 | 41 | 336 | 1.7 | 5.2 | 0.00 | 0.04 | 0.02 | 92 | 1023.3 |
| 20260505064731 | 41 | 346 | 1.7 | 4.3 | 0.00 | 0.04 | 0.02 | 92 | 1023.3 |
| 20260505063704 | 41 | 11 | 0.9 | 3.5 | 0.00 | 0.04 | 0.02 | 91 | 1023.3 |
| 20260505055713 | 41 | 24 | 1.7 | 6.1 | 0.00 | 0.02 | 0.02 | 91 | 1023.6 |
| 20260505054719 | 41 | 31 | 2.6 | 6.1 | 0.00 | 0.02 | 0.02 | 90 | 1023.6 |
| 20260505053705 | 41 | 5 | 2.6 | 5.2 | 0.00 | 0.02 | 0.02 | 90 | 1023.6 |
| 20260505051555 | 41 | 351 | 2.6 | 7.8 | 0.00 | 0.02 | 0.02 | 90 | 1023.4 |
| 20260505050607 | 41 | 355 | 4.3 | 7.8 | 0.00 | 0.02 | 0.02 | 89 | 1023.1 |
| 20260505040425 | 42 | 349 | 4.3 | 9.6 | 0.00 | 0.02 | 0.02 | 85 | 1022.2 |
| 20260505035427 | 42 | 30 | 4.3 | 9.6 | 0.00 | 0.02 | 0.02 | 86 | 1022.1 |
| 20260505033242 | 42 | 355 | 1.7 | 6.1 | 0.00 | 0.01 | 0.01 | 85 | 1022.6 |
| 20260505032216 | 42 | 26 | 2.6 | 7.0 | 0.00 | 0.01 | 0.01 | 84 | 1022.2 |
| 20260505031143 | 43 | 27 | 2.6 | 7.0 | 0.00 | 0.01 | 0.01 | 84 | 1022.5 |
| 20260505030149 | 43 | 0 | 2.6 | 6.1 | 0.00 | 0.01 | 0.01 | 83 | 1022.5 |
| 20260505022946 | 43 | 5 | 3.5 | 7.8 | 0.00 | 0.01 | 0.01 | 79 | 1022.0 |
| 20260505020751 | 43 | 38 | 2.6 | 7.0 | 0.00 | 0.01 | 0.01 | 78 | 1022.0 |
| 20260505015741 | 44 | 9 | 2.6 | 6.1 | 0.00 | 0.01 | 0.01 | 78 | 1021.9 |
| 20260505014735 | 44 | 17 | 2.6 | 8.7 | 0.00 | 0.01 | 0.01 | 77 | 1021.9 |
| 20260505013733 | 45 | 5 | 4.3 | 19.1 | 0.00 | 0.01 | 0.01 | 75 | 1021.9 |
| 20260505012706 | 47 | 0 | 8.7 | 19.1 | 0.00 | 0.00 | 0.00 | 67 | 1021.6 |
| 20260505011728 | 49 | 327 | 3.5 | 13.0 | 0.00 | 0.00 | 0.00 | 55 | 1021.6 |
| 20260505005611 | 49 | 319 | 7.0 | 13.9 | 0.00 | 0.00 | 0.00 | 54 | 1020.5 |
| 20260505004615 | 50 | 329 | 7.0 | 15.6 | 0.00 | 0.00 | 0.00 | 52 | 1020.5 |
| 20260505003632 | 51 | 0 | 8.7 | 15.6 | 0.00 | 0.00 | 0.00 | 49 | 1020.3 |
| 20260505002632 | 51 | 36 | 9.6 | 15.6 | 0.00 | 0.00 | 0.00 | 47 | 1020.2 |
| 20260505000547 | 53 | 28 | 8.7 | 19.1 | 0.00 | 0.00 | 0.00 | 43 | 1019.8 |
| 20260504235552 | 53 | 355 | 11.3 | 19.1 | 0.00 | 0.00 | 0.00 | 43 | 1019.7 |
| 20260504233410 | 55 | 11 | 7.8 | 16.5 | 0.00 | 0.00 | 0.00 | 40 | 1020.2 |
| 20260504231244 | 55 | 19 | 4.3 | 11.3 | 0.00 | 0.00 | 0.00 | 43 | 1020.1 |
| 20260504230210 | 53 | 49 | 3.5 | 13.9 | 0.00 | 0.00 | 0.00 | 42 | 1020.1 |
| 20260504225221 | 53 | 51 | 6.1 | 19.1 | 0.00 | 0.00 | 0.00 | 48 | 1020.1 |
| 20260504224246 | 55 | 33 | 7.0 | 19.1 | 0.00 | 0.00 | 0.00 | 44 | 1019.5 |
| 20260504222107 | 58 | 114 | 2.6 | 14.8 | 0.00 | 0.00 | 0.00 | 31 | 1019.5 |
| 20260504221108 | 58 | 93 | 4.3 | 14.8 | 0.00 | 0.00 | 0.00 | 32 | 1018.9 |
| 20260504220128 | 60 | 98 | 5.2 | 14.8 | 0.00 | 0.00 | 0.00 | 31 | 1018.9 |
| 20260504215148 | 60 | 75 | 3.5 | 12.2 | 0.00 | 0.00 | 0.00 | 29 | 1019.0 |
| 20260504214132 | 60 | 83 | 3.5 | 10.4 | 0.00 | 0.00 | 0.00 | 30 | 1019.0 |
| 20260504213110 | 60 | 53 | 2.6 | 15.6 | 0.00 | 0.00 | 0.00 | 29 | 1019.0 |
| 20260504212127 | 60 | 11 | 6.1 | 15.6 | 0.00 | 0.00 | 0.00 | 27 | 1018.9 |
| 20260504211147 | 61 | 28 | 7.0 | 13.0 | 0.00 | 0.00 | 0.00 | 27 | 1019.3 |
| 20260504210118 | 60 | 355 | 7.8 | 13.9 | 0.00 | 0.00 | 0.00 | 28 | 1019.3 |
| 20260504205113 | 60 | 0 | 8.7 | 14.8 | 0.00 | 0.00 | 0.00 | 27 | 1019.6 |
| 20260504204135 | 60 | 355 | 10.4 | 16.5 | 0.00 | 0.00 | 0.00 | 29 | 1019.6 |
| 20260504203128 | 61 | 344 | 12.2 | 21.7 | 0.00 | 0.00 | 0.00 | 29 | 1019.6 |
| 20260504201035 | 62 | 213 | 4.3 | 20.9 | 0.00 | 0.00 | 0.00 | 27 | 1019.7 |
| 20260504194908 | 61 | 204 | 2.6 | 8.7 | 0.00 | 0.00 | 0.00 | 25 | 1019.7 |
| 20260504193834 | 61 | 180 | 2.6 | 8.7 | 0.00 | 0.00 | 0.00 | 25 | 1020.0 |
| 20260504192813 | 61 | 67 | 3.5 | 7.8 | 0.00 | 0.00 | 0.00 | 25 | 1020.1 |
| 20260504191834 | 61 | 57 | 0.9 | 5.2 | 0.00 | 0.00 | 0.00 | 25 | 1020.1 |
| 20260504190811 | 61 | 37 | 1.7 | 6.1 | 0.00 | 0.00 | 0.00 | 26 | 1020.1 |
| 20260504185807 | 61 | 24 | 2.6 | 8.7 | 0.00 | 0.00 | 0.00 | 25 | 1020.2 |
| 20260504184822 | 61 | 45 | 3.5 | 11.3 | 0.00 | 0.00 | 0.00 | 25 | 1020.2 |
| 20260504183817 | 60 | 36 | 5.2 | 11.3 | 0.00 | 0.00 | 0.00 | 27 | 1020.7 |
| 20260504182820 | 59 | 5 | 2.6 | 7.0 | 0.00 | 0.00 | 0.00 | 27 | 1020.8 |
| 20260504181802 | 59 | 266 | 0.9 | 6.1 | 0.00 | 0.00 | 0.00 | 26 | 1020.8 |
| 20260504180826 | 59 | 273 | 1.7 | 8.7 | 0.00 | 0.00 | 0.00 | 24 | 1020.8 |
| 20260504174631 | 61 | 60 | 3.5 | 8.7 | 0.00 | 0.00 | 0.00 | 24 | 1020.9 |
| 20260504173648 | 62 | 271 | 3.5 | 9.6 | 0.00 | 0.00 | 0.00 | 25 | 1021.5 |
| 20260504171429 | 60 | 234 | 7.0 | 15.6 | 0.00 | 0.00 | 0.00 | 31 | 1021.5 |
| 20260504170442 | 58 | 228 | 7.8 | 15.6 | 0.00 | 0.00 | 0.00 | 35 | 1021.6 |
| 20260504160255 | 58 | 280 | 11.3 | 18.2 | 0.00 | 0.00 | 0.00 | 33 | 1022.2 |